Le nostre stazioni meteo in Italia

Pubblicità
Il mio iltempo24.it
Ronchi Dei Legionari, Italia (16108): Temperatura & dewpoint: 03.04.2020 17:00:00 - 09.04.2020 17:00:00 (CEST)Ronchi Dei Legionari, Italia (16108): velocità del vento: 03.04.2020 17:00:00 - 09.04.2020 17:00:00 (CEST)Ronchi Dei Legionari, Italia (16108): direzione del vento: 03.04.2020 17:00:00 - 09.04.2020 17:00:00 (CEST)Ronchi Dei Legionari, Italia (16108): reduced air pressure: 03.04.2020 17:00:00 - 09.04.2020 17:00:00 (CEST)Ronchi Dei Legionari, Italia (16108): visibility: 03.04.2020 17:00:00 - 09.04.2020 17:00:00 (CEST)Ronchi Dei Legionari, Italia (16108): precipitazioni: 03.04.2020 17:00:00 - 09.04.2020 17:00:00 (CEST)
Data & Tempo tt [°C] td [°C] ff [km/h] ff [kn] dd ppp [hPa] vv [km] rr [mm]
09.04.2020 17:00:00 21,6 0,1 16 9 S 1020,2 - 0,0
09.04.2020 16:00:00 - - - - - - - -
09.04.2020 15:00:00 - - - - - - - -
09.04.2020 14:00:00 23,0 -1,5 11 6 N 1021,3 - -
09.04.2020 13:00:00 - - - - - - - -
09.04.2020 12:00:00 - - - - - - - -
09.04.2020 11:00:00 20,7 -2,1 4 2 N 1022,8 - 0,0
09.04.2020 10:00:00 - - - - - - - -
09.04.2020 09:00:00 - - - - - - - -
09.04.2020 08:00:00 10,3 1,4 4 2 NNO 1022,8 - -
09.04.2020 07:00:00 - - - - - - - -
09.04.2020 06:00:00 - - - - - - - -
09.04.2020 05:00:00 4,0 0,3 4 2 N 1022,9 - 0,0
09.04.2020 04:00:00 - - - - - - - -
09.04.2020 03:00:00 - - - - - - - -
09.04.2020 02:00:00 6,3 0,3 8 4 NNE 1024,3 - -
09.04.2020 01:00:00 - - - - - - - -
09.04.2020 00:00:00 - - - - - - - -
08.04.2020 23:00:00 10,3 -0,8 4 2 ENE 1024,9 - 0,0
08.04.2020 22:00:00 - - - - - - - -
08.04.2020 21:00:00 - - - - - - - -
08.04.2020 20:00:00 13,3 5,7 11 6 SE 1024,1 - -
08.04.2020 19:00:00 - - - - - - - -
08.04.2020 18:00:00 - - - - - - - -
08.04.2020 17:00:00 22,8 -4,2 9 5 ENE 1023,6 - 0,0
08.04.2020 16:00:00 - - - - - - - -
08.04.2020 15:00:00 - - - - - - - -
08.04.2020 14:00:00 22,6 -6,4 18 10 E 1025,7 - -
08.04.2020 13:00:00 - - - - - - - -
08.04.2020 12:00:00 - - - - - - - -
08.04.2020 11:00:00 20,2 -6,0 22 12 E 1027,8 - 0,0
08.04.2020 10:00:00 - - - - - - - -
08.04.2020 09:00:00 - - - - - - - -
08.04.2020 08:00:00 10,1 -1,9 8 4 N 1028,2 - -
08.04.2020 07:00:00 - - - - - - - -
08.04.2020 06:00:00 - - - - - - - -
08.04.2020 05:00:00 5,6 -2,8 5 3 N 1028,0 - 0,0
08.04.2020 04:00:00 - - - - - - - -
08.04.2020 03:00:00 - - - - - - - -
08.04.2020 02:00:00 12,9 -5,2 5 3 NO 1029,1 - -
08.04.2020 01:00:00 - - - - - - - -
08.04.2020 00:00:00 - - - - - - - -
07.04.2020 23:00:00 9,7 1,4 4 2 N 1029,5 - 0,0
07.04.2020 22:00:00 - - - - - - - -
07.04.2020 21:00:00 - - - - - - - -
07.04.2020 20:00:00 14,2 6,7 15 8 SE 1028,3 - -
07.04.2020 19:00:00 - - - - - - - -
07.04.2020 18:00:00 - - - - - - - -
07.04.2020 17:00:00 24,0 -3,0 16 9 E 1026,9 - 0,0
07.04.2020 16:00:00 - - - - - - - -
07.04.2020 15:00:00 - - - - - - - -
07.04.2020 14:00:00 22,7 -6,9 5 3 ENE 1028,1 - -
07.04.2020 13:00:00 - - - - - - - -
07.04.2020 12:00:00 - - - - - - - -
07.04.2020 11:00:00 18,6 -4,1 5 3 N 1029,2 - 0,0
07.04.2020 10:00:00 - - - - - - - -
07.04.2020 09:00:00 - - - - - - - -
07.04.2020 08:00:00 7,4 1,5 4 2 N 1028,5 - -
07.04.2020 07:00:00 - - - - - - - -
07.04.2020 06:00:00 - - - - - - - -
07.04.2020 05:00:00 5,6 -2,2 2 1 N 1027,9 - 0,0
07.04.2020 04:00:00 - - - - - - - -
07.04.2020 03:00:00 - - - - - - - -
07.04.2020 02:00:00 10,1 -3,4 5 3 N 1028,6 - -
07.04.2020 01:00:00 - - - - - - - -
07.04.2020 00:00:00 - - - - - - - -
06.04.2020 23:00:00 16,3 -4,3 15 8 ESE 1027,9 - 0,0
06.04.2020 22:00:00 - - - - - - - -
06.04.2020 21:00:00 - - - - - - - -
06.04.2020 20:00:00 18,9 -3,4 21 11 E 1025,5 - -
06.04.2020 19:00:00 - - - - - - - -
06.04.2020 18:00:00 - - - - - - - -
06.04.2020 17:00:00 22,5 -1,2 24 13 E 1024,6 - 0,0
06.04.2020 16:00:00 - - - - - - - -
06.04.2020 15:00:00 - - - - - - - -
06.04.2020 14:00:00 21,7 0,8 21 11 ENE 1025,7 - -
06.04.2020 13:00:00 - - - - - - - -
06.04.2020 12:00:00 - - - - - - - -
06.04.2020 11:00:00 - - - - - - - -
06.04.2020 10:00:00 - - - - - - - -
06.04.2020 09:00:00 - - - - - - - -
06.04.2020 08:00:00 - - - - - - - -
06.04.2020 07:00:00 - - - - - - - -
06.04.2020 06:00:00 9,0 1,0 5 3 N - 10 -
06.04.2020 05:00:00 7,5 0,5 9 5 ONO 1025,3 10 0,0
06.04.2020 04:00:00 12,0 0,0 9 5 NNE - 10 -
06.04.2020 03:00:00 13,0 0,0 4 2 - - 10 -
06.04.2020 02:00:00 13,6 0,2 8 4 NNO 1025,4 10 -
06.04.2020 01:00:00 16,0 1,0 13 7 NE - 10 -
06.04.2020 00:00:00 17,0 0,0 21 11 ENE - 10 -
05.04.2020 23:00:00 17,1 -0,1 18 10 ENE 1024,8 10 0,0
05.04.2020 22:00:00 17,0 0,0 18 10 ENE - 10 -
05.04.2020 21:00:00 17,0 -1,0 15 8 ENE - 10 -
05.04.2020 20:00:00 18,1 -1,2 28 15 E 1023,4 10 -
05.04.2020 19:00:00 19,0 -1,0 21 11 E - 10 -
05.04.2020 18:00:00 20,0 -1,0 22 12 E - 10 -
05.04.2020 17:00:00 20,4 -0,6 24 13 ENE 1022,9 10 0,0
05.04.2020 16:00:00 21,0 -1,0 34 18 E - 10 -
05.04.2020 15:00:00 21,0 -1,0 29 16 E - 10 -
05.04.2020 14:00:00 20,1 -0,8 22 12 E 1024,2 10 -
05.04.2020 13:00:00 19,0 -2,0 24 13 E - 10 -
05.04.2020 12:00:00 18,0 -2,0 24 13 E - 10 -
05.04.2020 11:00:00 16,8 -2,2 11 6 NE 1025,8 10 0,0
05.04.2020 10:00:00 16,0 0,0 13 7 ENE - 10 -
05.04.2020 09:00:00 14,0 1,0 9 5 NNE - 10 -
05.04.2020 08:00:00 9,0 1,5 5 3 ENE 1025,4 10 -
05.04.2020 07:00:00 5,0 -1,0 9 5 NNO - 10 -
05.04.2020 06:00:00 5,0 -1,0 4 2 - - 10 -
05.04.2020 05:00:00 5,7 -1,0 4 2 NNO 1024,5 10 0,0
05.04.2020 04:00:00 11,0 -2,0 9 5 E - 10 -
05.04.2020 03:00:00 14,0 -2,0 21 11 E - 10 -
05.04.2020 02:00:00 13,3 -1,9 18 10 E 1024,6 10 -
05.04.2020 01:00:00 14,0 -2,0 16 9 E - 10 -
05.04.2020 00:00:00 14,0 -2,0 21 11 E - 10 -
04.04.2020 23:00:00 14,3 -1,1 15 8 E 1023,5 10 0,0
04.04.2020 22:00:00 15,0 -1,0 15 8 E - 10 -
04.04.2020 21:00:00 15,0 -1,0 11 6 ENE - 10 -
04.04.2020 20:00:00 15,8 -0,8 16 9 E 1021,2 10 -
04.04.2020 19:00:00 18,0 -1,0 15 8 E - 10 -
04.04.2020 18:00:00 19,0 1,0 8 4 - - 10 -
04.04.2020 17:00:00 18,6 0,8 11 6 O 1019,8 10 0,0
04.04.2020 16:00:00 18,0 -1,0 5 3 ONO - 10 -
04.04.2020 15:00:00 18,0 0,0 9 5 OSO - 10 -
04.04.2020 14:00:00 18,2 -0,8 5 3 NO 1020,6 10 -
04.04.2020 13:00:00 19,0 0,0 13 7 NNE - 10 -
04.04.2020 12:00:00 18,0 -1,0 11 6 NNE - 10 -
04.04.2020 11:00:00 17,2 0,9 18 10 ESE 1021,6 10 0,0
04.04.2020 10:00:00 16,0 1,0 22 12 ESE - 10 -
04.04.2020 09:00:00 12,0 3,0 5 3 NNO - 10 -
04.04.2020 08:00:00 9,6 1,3 8 4 NE 1020,5 10 -
04.04.2020 07:00:00 5,0 1,0 11 6 NNE - 10 -
04.04.2020 06:00:00 7,0 1,0 13 7 NE - 10 -
04.04.2020 05:00:00 5,1 0,4 4 2 - 1019,1 10 0,0
04.04.2020 04:00:00 5,0 3,0 5 3 ONO - 10 -
04.04.2020 03:00:00 6,0 3,0 4 2 - - 10 -
04.04.2020 02:00:00 6,1 3,1 5 3 NNE 1018,1 10 -
04.04.2020 01:00:00 6,0 3,0 8 4 NE - 10 -
04.04.2020 00:00:00 5,0 3,0 8 4 N - 10 -
03.04.2020 23:00:00 7,1 2,9 9 5 E 1016,9 10 0,0
03.04.2020 22:00:00 8,0 4,0 9 5 E - 10 -
03.04.2020 21:00:00 9,0 5,0 8 4 SE - 10 -
03.04.2020 20:00:00 10,3 4,6 9 5 SSE 1015,0 10 -
03.04.2020 19:00:00 13,0 4,0 8 4 S - 10 -
03.04.2020 18:00:00 14,0 4,0 9 5 SSO - 10 -
03.04.2020 17:00:00 14,4 4,6 13 7 SSO 1013,9 10 0,0

tt = Temperatura
td = dewpoint
ff = velocità del vento
dd = direzione del vento
ppp = reduced air pressure
vv = visibility
rr = precipitazioni

Stazioni seguenti

WeatherPro
AMSI
MeteoEarth